Regional Weather Roundup
Issued by NWS

Home | Current Version | Previous Version | Text Only | Print | Product List | Glossary Off
Versions: 1 2 3 4 5 6 7 8 9 10 11 12 13 14 15 16 17 18 19 20 21 22 23 24 25 26 27 28 29 30 31 32 33 34 35 36 37 38 39 40 41 42 43 44 45 46 47 48 49 50

000
ASUS43 KTOP 010408
RWRKS

WEATHER ROUNDUP FOR KANSAS
NATIONAL WEATHER SERVICE GOODLAND KS
1100 PM CDT TUE MAR 31 2015

NOTE:  "FAIR" INDICATES FEW OR NO CLOUDS BELOW 12,000 FEET WITH NO
SIGNIFICANT WEATHER AND/OR OBSTRUCTIONS TO VISIBILITY.

KSZ001>006-013>018-027>032-041>047-010500-
NORTHWEST KANSAS

CITY           SKY/WX    TMP DP  RH WIND       PRES   REMARKS
GOODLAND       CLEAR     56  26  31 S14       29.84F
HAYS           CLEAR     57  30  35 SE12      29.85F
HILL CITY      CLEAR     65  31  28 S12       29.83F
RUSSELL        CLEAR     62  33  33 SE15      29.84F
$$

KSZ061>065-074>080-084>089-010500-
SOUTHWEST KANSAS

CITY           SKY/WX    TMP DP  RH WIND       PRES   REMARKS
DODGE CITY     CLEAR     57  33  40 SE10      29.87F
ELKHART          N/A     58  42  55 SE12        N/A
GARDEN CITY    CLEAR     57  35  43 SE10      29.86F
GREAT BEND     CLEAR     57  34  41 SE13      29.86F
LIBERAL        CLEAR     66  43  42 E13       29.88S
PRATT          CLEAR     61  36  39 SE7       29.89S
$$

KSZ066>073-081>083-090>101-010500-
SOUTHEAST KANSAS

CITY           SKY/WX    TMP DP  RH WIND       PRES   REMARKS
CHANUTE        CLEAR     59  39  47 E6        29.93S
COFFEYVILLE    CLEAR     53  49  86 CALM      29.91F
HUTCHINSON     CLEAR     62  36  37 E10       29.87F
MEDICINE LODGE   N/A     64  40  41 E8        29.85F
NEWTON         CLEAR     59  34  38 SE9       29.92F
PARSONS        CLEAR     54  45  71 CALM      29.93S
WICHITA INTL   PTCLDY    65  41  41 SE9       29.88S
WICHITA JABRA  CLEAR     59  41  51 E7        29.89F
WICHITA MCCONL CLEAR     63  42  46 E9        29.89S
WINFIELD       CLEAR     65  45  48 E9        29.89F
$$

KSZ007>012-019>026-033>040-048>060-102>105-010500-
NORTHEAST KANSAS

CITY           SKY/WX    TMP DP  RH WIND       PRES   REMARKS
CONCORDIA      CLEAR     61  33  35 SE13      29.87F
EMPORIA        CLEAR     56  35  45 SE8       29.92S
LAWRENCE       CLEAR     47  36  65 CALM      29.93F
MANHATTAN      CLEAR     60  34  37 CALM      29.90F
MARYSVILLE     CLEAR     55  34  44 SE8       29.89F
OLATHE IND     CLEAR     59  33  37 E6        29.95F
OLATHE EXE     CLEAR     62  32  32 SE5       29.94S
SALINA         CLEAR     61  35  37 SE8       29.87F
TOPEKA BILLARD CLEAR     56  40  55 E3        29.92F
TOPEKA FORBES  CLEAR     58  34  40 SE7       29.92F
$$


USA.gov is the U.S. government's official web portal to all federal, state and local government web resources and services.